カタログに戻る

COSMOS 2514

GLONASS

運用中ナビゲーションMEO
NORAD 41330·PAYLOAD·🇷🇺 Russia

打ち上げ Feb 7, 2016 から Plesetsk Cosmodrome

Loading…

次のパス (今後24時間)

TLE

最新Source: CelesTrak SupGP

元期: Sep 14, 2026, 23:59 UTC

1 41330C 16008A   26257.99979167  .00000000  00000+0  00000+0 0  2570
2 41330  64.9633 309.9196 0013693 210.7478 215.1485  2.13102896    11

AllMySatでCOSMOS 2514をリアルタイム追跡

Download on the App Store